Location: *
(37.5724°S, 58.0067°E)
Time: 10:14:43
(UTC+00:00)

Cosmos 1484 Rocket - Pass Details

Date: 26 September 2020
Orbit: 506 x 559 km, 97.4° (Epoch: 29 October)

Event Time Altitude Azimuth Distance (km) Brightness Sun altitude
Exits shadow 23:46:05 - 25° (NNE) 2,033 5.7 -24.6°
Reaches altitude 10° 23:46:37 10° 26° (NNE) 1,814 5.5 -24.5°
Maximum altitude 23:50:28 57° 105° (ESE) 649 3.4 -23.8°
Drops below altitude 10° 23:54:18 10° 183° (S) 1,810 5.7 -23.1°
Sets 23:56:26 0° 187° (S) 2,700 6.5 -22.7°
